Location: Darr Branch
(32.1532°N, 97.3853°W)
Time: 04:23:26
(UTC+00:00)

Cosmos 1975 Rocket - Visible Passes

Search period start: 19 February 2026 00:00
Search period end: 01 March 2026 00:00
Orbit: 596 x 627 km, 82.5° (Epoch: 18 February)

Date Brightness Start Highest point End Pass type
(mag) Time Alt. Az. Time Alt. Az. Time Alt. Az.
19 Feb 5.6 01:34:19 10° SW 01:37:46 23° WNW 01:41:13 10° NNW visible
19 Feb 3.9 11:45:54 10° N 11:50:04 50° E 11:54:15 10° SSE visible
20 Feb 6.3 01:51:03 10° W 01:52:55 12° WNW 01:54:46 10° NW visible
20 Feb 2.9 12:00:45 10° N 12:05:02 82° W 12:09:21 10° S visible
21 Feb 6.3 10:40:31 10° NE 10:42:06 12° ENE 10:43:41 10° E visible
21 Feb 3.4 12:15:55 10° NNW 12:19:57 41° W 12:24:00 10° SSW visible
22 Feb 4.0 00:40:44 10° SSW 00:44:57 53° W 00:49:10 10° N visible
22 Feb 5.5 10:53:53 10° NNE 10:57:14 22° ENE 11:00:36 10° SE visible
22 Feb 4.2 12:31:29 10° NW 12:34:47 22° W 12:38:06 10° SW visible
23 Feb 5.4 00:56:17 10° SW 00:59:59 28° W 01:03:42 10° NNW visible
23 Feb 4.3 11:08:14 10° N 11:12:18 41° E 11:16:23 10° SSE visible
24 Feb 6.1 01:12:35 10° WSW 01:15:06 15° WNW 01:17:37 10° NW visible
24 Feb 3.0 11:22:59 10° N 11:27:18 81° E 11:31:38 10° S visible
25 Feb 3.1 11:38:02 10° NNW 11:42:13 51° W 11:46:25 10° SSW visible
26 Feb 5.6 10:16:26 10° NNE 10:19:26 18° ENE 10:22:27 10° ESE visible
26 Feb 3.9 11:53:27 10° NNW 11:57:05 26° W 12:00:42 10° SSW visible
27 Feb 4.7 10:35:30 30° ESE 10:35:30 30° ESE 10:38:28 10° SE visible
27 Feb 4.7 12:12:46 14° W 12:12:46 14° W 12:14:12 10° WSW visible
28 Feb 5.6 10:53:44 11° SSE 10:53:44 11° SSE 10:53:51 10° SSE visible
